Regional Weather Roundup
Issued by NWS

Home | Current Version | Previous Version | Graphics & Text | Print | Product List | Glossary On
Versions: 1 2 3 4 5 6 7 8 9 10 11 12 13 14 15 16 17 18 19 20 21 22 23 24 25 26 27 28 29 30 31 32 33 34 35 36 37 38 39 40 41 42 43 44 45 46 47 48 49 50
288
ASUS43 KLSX 201157
RWRMO

WEATHER SUMMARY FOR MISSOURI
NATIONAL WEATHER SERVICE SPRINGFIELD MO
700 AM CDT THU JUL 20 2017

NOTE: "FAIR" INDICATES FEW OR NO CLOUDS BELOW 12,000 FEET WITH NO
       SIGNIFICANT WEATHER AND/OR OBSTRUCTIONS TO VISIBILITY.
       CURRENT SKY AND/OR WEATHER CONDITIONS ARE NOT AVAILABLE FOR
       CHILLICOTHE AND FARMINGTON.

MOZ001>031-035>038-043-044-053-054-201300-
...NORTHERN AND WESTERN MISSOURI...

CITY           SKY/WX    TMP DP  RH WIND       PRES   REMARKS
KANSAS CTY INT PTCLDY    77  72  84 SW10      30.03R
6HR MIN TEMP:  76; 6HR MAX TEMP:  82;

LEE`S SUMMIT   CLEAR     79  72  79 SW8       30.06R
6HR MIN TEMP:  78; 6HR MAX TEMP:  82;

ST JOSEPH      CLEAR     76  73  91 CALM      30.01R
6HR MIN TEMP:  76; 6HR MAX TEMP:  81;

CHILLICOTHE      N/A     76  73  91 S5        30.03R
6HR MIN TEMP:  75; 6HR MAX TEMP:  81;


$$
MOZ066>068-077>081-088>096-101>105-201300-
...SOUTHWEST MISSOURI...

CITY           SKY/WX    TMP DP  RH WIND       PRES   REMARKS
SPRINGFIELD    CLEAR     74  71  91 S7        30.12R
6HR MIN TEMP:  72; 6HR MAX TEMP:  79;

JOPLIN         CLEAR     78  74  87 S7        30.11R
6HR MIN TEMP:  77; 6HR MAX TEMP:  80;

BRANSON        CLEAR     75  72  88 SW5       30.15S

$$
MOZ032>034-039>042-045>050-055>058-069>072-201300-
...CENTRAL MISSOURI...

CITY           SKY/WX    TMP DP  RH WIND       PRES   REMARKS
COLUMBIA       NOT AVBL
JEFFERSON CITY CLEAR     76  72  87 CALM      30.07R
6HR MIN TEMP:  75; 6HR MAX TEMP:  79;

ROLLA          SUNNY     74  69  85 SW10      30.10R
6HR MIN TEMP:  73; 6HR MAX TEMP:  77;

SEDALIA        CLEAR     77  73  87 SW10      30.07R
6HR MIN TEMP:  76; 6HR MAX TEMP:  79;

WARRENSBURG    CLEAR     75  70  83 S7        30.05S

$$
MOZ051-052-059>065-201300-
...EAST CENTRAL MISSOURI...

CITY           SKY/WX    TMP DP  RH WIND       PRES   REMARKS
ST LOUIS INTL  CLOUDY    83  69  62 SW10      30.06R
6HR MIN TEMP:  83; 6HR MAX TEMP:  87;


$$
MOZ072>076-082>087-097>100-106>115-201300-
...SOUTH CENTRAL AND SOUTHEAST MISSOURI...

CITY           SKY/WX    TMP DP  RH WIND       PRES   REMARKS
CAPE GIRARDEAU SUNNY     75  72  90 CALM      30.09R FOG
6HR MIN TEMP:  71; 6HR MAX TEMP:  75;

POPLAR BLUFF   MOSUNNY   77  76  96 SW5       30.09R FOG
6HR MIN TEMP:  74; 6HR MAX TEMP:  77;

WEST PLAINS    CLEAR     75  71  87 SW3       30.14R
6HR MIN TEMP:  72; 6HR MAX TEMP:  79;


$$



USA.gov is the U.S. government's official web portal to all federal, state and local government web resources and services.